Location: Recife
(8.0585°S, 34.8848°W)
Time: 13:51:07
(UTC-03:00)

Tiros 1 despin weight - Pass Details

Date: 14 April 2026
Orbit: 555 x 591 km, 48.2° (Epoch: 14 May)

Event Time Altitude Azimuth Distance (km) Brightness Sun altitude
Rises 13:05:51 0° 228° (SW) 2,731 ? 58.2°
Reaches altitude 10° 13:08:09 10° 233° (SW) 1,833 ? 57.8°
Maximum altitude 13:12:13 51° 309° (NW) 699 ? 56.9°
Drops below altitude 10° 13:16:16 10° 25° (NNE) 1,829 ? 56.1°
Sets 13:18:34 0° 30° (NNE) 2,724 ? 55.6°
